www.pogodaiklimat.ru

Погода и климат >> Архив погоды >> Индия >> Chandrapur


ПОГОДА в Chandrapur

  • Прогноз погоды в Chandrapur
  • Монитор погоды в Chandrapur
  • Климат города

АРХИВ ПОГОДЫ в Chandrapur

Время (UTC), дата Ветер
(напр.,м/с)
 
Видим.   Явления Облачность Т
(С)
Тd
(С)
f
(%)
Тe
(С)
Тes
(С)
Комфортность P
(гПа)
Po
(гПа)
Тmin
(С)
Tmax
(С)
R
(мм)
R24
(мм)
S
(см)
12 17.01 С 2 4000 м ясно +30.4 +11.5 31 +31 +31 жарко 1010.5 1011.0 +33.0
03 18.01 З 2 4000 м ясно +17.6 +9.7 60 +18 +22 1015.6 1016.0 +12.2
06 18.01 С 1 4000 м ясно +28.0 +17.2 52 +32 +47 душно 1015.1 1015.0
09 18.01 СВ 1 4000 м ясно +30.4 +17.2 45 +34 +44 очень
душно
1011.6 1012.0
12 18.01 З 2 4000 м ясно +29.4 +23.0 68 +39 +39 очень
душно
1010.6 1011.0 +31.2
03 19.01 СЗ 2 4000 м ясно +15.0 +11.7 81 +15 +19 1017.0 1017.0 +11.2
06 19.01 В 1 4000 м ясно +29.6 +15.1 41 +32 +47 душно 1016.0 1016.0
09 19.01 СВ 1 4000 м ясно +30.4 +18.3 48 +35 +45 очень
душно
1012.5 1013.0
12 19.01 В 2 4000 м ясно +29.0 +21.9 66 +37 +38 очень
душно
1011.9 1012.0 +31.8
03 20.01 СВ 5 4000 м ясно +14.6 +12.4 87 +13 +15 1014.9 1015.0 +10.4
06 20.01 СЗ 1 4000 м ясно +27.2 +9.1 32 +27 +42 жарко 1015.0 1015.0
09 20.01 В 1 4000 м ясно +30.4 +7.8 24 +29 +39 жарко 1010.6 1011.0
12 20.01 СВ 2 4000 м ясно +31.0 +20.1 52 +37 +37 очень
душно
1011.7 1012.0 +31.6
03 21.01 В 2 4000 м ясно +18.6 +14.5 77 +20 +24 1014.5 1015.0 +11.2
06 21.01 Ю 1 4000 м ясно +27.2 +17.4 55 +31 +46 душно 1015.1 1015.0
09 21.01 ЮЗ 1 4000 м ясно +31.4 +17.7 44 +36 +45 очень
душно
1009.5 1010.0
12 21.01 В 2 4000 м ясно +30.0 +23.0 66 +40 +40 очень
душно
1010.7 1011.0 +32.2
03 22.01 Ю 2 4000 м ясно +16.0 +9.0 63 +16 +20 1015.1 1015.0 +11.0
06 22.01 ЮВ 1 4000 м ясно +26.6 +11.6 39 +28 +43 жарко 1013.0 1013.0
09 22.01 З 1 4000 м ясно +30.2 +15.3 40 +33 +43 душно 1009.5 1010.0
12 22.01 Ю 2 4000 м ясно +29.4 +11.4 33 +30 +30 жарко 1009.6 1010.0 +31.4
03 23.01 Ю 2 4000 м ясно +18.4 +12.3 68 +20 +23 1013.7 1014.0 +13.2
06 23.01 ЮЗ 1 4000 м ясно +28.2 +13.4 40 +30 +45 жарко 1012.8 1013.0
09 23.01 Ю 1 4000 м ясно +30.6 +12.8 34 +32 +42 жарко 1007.8 1008.0
12 23.01 В 1 4000 м ясно +29.6 +12.2 34 +30 +31 жарко 1007.8 1008.0 +31.2
03 24.01 З 2 4000 м ясно +18.2 +13.3 73 +19 +23 1013.6 1014.0 +14.0
06 24.01 СВ 1 4000 м ясно +26.0 +13.0 45 +28 +43 жарко 1013.9 1014.0
09 24.01 СВ 1 4000 м ясно +30.4 +11.0 30 +31 +41 жарко 1007.5 1008.0

 

Местоположение метеостанции Chandrapur (Maharashtra, Индия): широта 19.97 долгота 79.30 высота над уровнем моря 193 м.

В архиве по умолчанию представлена погода в Chandrapur за последнюю неделю. Архивные данные за месяц целиком и за предыдущие месяцы, начиная с января 2011 года, Вы можете получить, выбрав интересующий диапазон дат из раскрывающегося списка и нажав кнопку "Ввод!".

Внимание! Время в таблицах - всемирное. Для получения местного времени необходимо прибавить поправку, которая в Chandrapur равна 5.5 ч.

Смотрите также архив погоды в соседних городах и на ближайших метеорологических станциях:

Погода в Adilabad (Telangana, Индия) (88 км)
Погода в Bramhapuri (Maharashtra, Индия) (91 км)
Погода в Wardha (Maharashtra, Индия) (108 км)
Погода в Nagpur (Maharashtra, Индия) (128 км)
Погода в Yeotmal (Maharashtra, Индия) (129 км)
Погода в Ramgundam (Telangana, Индия) (134 км)
Погода в Amravati (Maharashtra, Индия) (191 км)
Погода в Gondia (Maharashtra, Индия) (191 км)
Погода в Nizamabad (Telangana, Индия) (192 км)
Погода в Hanamkonda (Telangana, Индия) (219 км)

Пояснения к столбцам:

Ветер - указаны скорость ветра в м/с - средняя за 10 мин, порывы в срок и между сроками (в фигурных скобках) и направление, откуда дует ветер: С - северный, СВ - северо-восточный, В - восточный, ЮВ - юго-восточный, Ю - южный, ЮЗ - юго-западный, З - западный, СЗ - северо-западный.
Видимость - горизонтальная дальность видимости в метрах или километрах. При видимости от 1 до 10 км при отсутствии осадков обычно наблюдается дымка, при ухудшении видимости до 1 км и менее - туман. В сухую погоду видимость может ухудшаться дымом, пылью или мглою.
Явления - указаны атмосферные явления, наблюдавшиеся в срок или в последний час перед сроком; фигурными скобками обозначены явления, наблюдавшиеся между сроками (за 1-3 часа до срока); квадратными скобками обозначены град или гололедные отложения с указанием их диаметра в мм.
Облачность - указаны через наклонную черту общая и нижняя облачность в баллах и высота нижней границы облаков в метрах; квадратными скобками обозначены формы облаков: Ci - перистые, Cs - перисто-слоистые, Cc - перисто-кучевые, Ac - высококучевые, As - высокослоистые, Sc - слоисто-кучевые, Ns - слоисто-дождевые, Cu - кучевые, Cb - кучево-дождевые. Подробнее классификацию облаков см. в Атласе облаков (PDF).
T - Температура воздуха - температура, измеренная на высоте 2 м над землей.
Td - Температура точки росы - температура, при понижении до которой содержащийся в воздухе водяной пар достигнет насыщения.
f - Относительная влажность воздуха - влажноcть воздуха, измеренная на высоте 2 м над землей.
Te - Эффективная температура - температура, которую ощущает одетый по сезону человек в тени. Характеристика душности погоды. При расчете учитывается влияние влажности воздуха и скорости ветра на теплоощущения человека.
Tes - Эффективная температура на солнце - температура, которую ощущает человек, с поправкой на солнечный нагрев. Характеристика знойности погоды. Зависит от высоты солнца над горизонтом, облачности и скорости ветра. Ночью, в пасмурную погоду, а также при ветре 12 м/с и более поправка равна нулю.
P - Атмосферное давление - приведенное к уровню моря атмосферное давление.
Po - Атмосферное давление - измеренное на уровне метеостанции атмосферное давление.
Tmin - Минимальная температура - минимум температуры воздуха на высоте 2 м над землей.
Tmax - Максимальная температура - максимум температуры воздуха на высоте 2 м над землей.
R - Количество осадков - Количество выпавших осадков за период времени, мм. При наведении курсора мыши на число - период времени, за который выпало указанное количество осадков.
R24 - Количество осадков - Количество выпавших осадков за 24 часа, мм.
S - Снежный покров - Высота снежного покрова, см. При наведении курсора мыши на число - состояние снежного покрова и степень покрытия местности в баллах.